Regional Weather Roundup
Issued by NWS Bismarck, ND

Home | Current Version | Previous Version | Text Only | Print | Product List | Glossary On
Versions: 1 2 3 4 5 6 7 8 9 10 11 12 13 14 15 16 17 18 19 20 21 22 23 24 25 26 27 28 29 30 31 32 33 34 35 36 37 38 39 40 41 42 43 44 45 46 47 48 49 50
000
ASUS43 KBIS 041902
RWRBIS

NWR BROADCAST TEXT
NATIONAL WEATHER SERVICE BISMARCK ND
200 PM CDT WED MAY 04 2016

NOTE: "FAIR" INDICATES FEW OR NO CLOUDS BELOW 12,000 FEET WITH NO
SIGNIFICANT WEATHER AND/OR OBSTRUCTIONS TO VISIBILITY.


CITY           SKY/WX    TMP DP  RH WIND       PRES   REMARKS
WILLISTON      SUNNY     83  38  20 SW15      29.97F
MINOT          SUNNY     84  37  18 S7        29.97F
MINOT AFB      NOT AVBL
BISMARCK       SUNNY     74  38  27 VRB3      30.04F
DICKINSON      SUNNY     77  38  24 SW7       30.02F
GARRISON         N/A     77  38  24 S8        30.00F
HETTINGER ARPT SUNNY     76  40  27 SW7       30.07F
JAMESTOWN      SUNNY     66  32  28 VRB5      30.05F
HAZEN          FAIR      77  37  24 NW3       30.03F
OAKES            N/A    N/A N/A N/A MISG        N/A
STANLEY        FAIR      79  37  22 W6G17     30.01F
$$

CITY           SKY/WX    TMP DP  RH WIND       PRES   REMARKS
GRAND FORKS    MOSUNNY   64  34  32 VRB3      30.04F
GRAND FORKS AF SUNNY     64  32  29 VRB1      30.04F
DEVILS LAKE    SUNNY     64  32  30 SW7       30.05F
FARGO          SUNNY     66  31  27 N7        30.04F
CAVALIER       FAIR      63  32  31 E3        30.03F
GRAFTON        FAIR      63  34  34 W5        30.06F
GWINNER        FAIR      66  32  28 NW9G18    30.06F
LANGDON        FAIR      70  30  23 VRB5      30.03F
$$

CITY           SKY/WX    TMP DP  RH WIND       PRES   REMARKS
ABERDEEN       SUNNY     69  32  25 N9G22     30.07F
MOBRIDGE       SUNNY     70  39  32 VRB5      30.06F
BUFFALO          N/A     78  37  22 S12G20    30.01F
RAPID CITY     SUNNY     75  40  28 VRB7      30.11F
GLASGOW        LGT RAIN  82  41  23 S15G22    29.93F
SIDNEY         SUNNY     81  43  26 S13G18    29.98F
WOLF POINT     SUNNY     84  41  21 S10       29.93F
GLENDIVE       SUNNY     81  41  24 S18G24    30.02F
MILES CITY     SUNNY     83  37  19 S14G21    29.98F
BAKER          SUNNY     79  38  22 S16G26    30.05F
$$

CITY           SKY/WX    TMP DP  RH WIND       PRES   REMARKS
BILLINGS       MOSUNNY   79  29  16 W8        30.02F
GREAT FALLS    SUNNY     80  30  16 SW18G26   29.95F
$$




USA.gov is the U.S. government's official web portal to all federal, state and local government web resources and services.